Content
SEND FEEDBACK

Daily
Averages
Monthly
Summary
United States of America

WABASH, INDIANA


Home > North America > United States > Indiana
Elevation: 779 feet     Latitude: 40 46N     Longitude: 085 49W

WEATHER
 
SELECT A DAY
Number of Records: 167,736;   Date Range: 1/3/95 - 7/29/14
 
SHARE

PRINT THIS DATA

[ ← Previous Day ]
WEATHER ALMANAC - JANUARY 31, 2013
[ Next Day → ]
[ °C ]   °F
Weather ElementAverageHighLow
Temperature18.6 °F24.8 °F (12:33 am)8.6 °F (11:18 pm)
Dewpoint13.5 °F23 °F (12:33 am)1.4 °F (11:53 pm)
Humidity80.4 %93 % (12:33 am)68 % (12:55 pm)
Barometer29.85 in30.12 in (11:55 pm)29.60 in (12:33 am)
Wind Speed23.9 mph31.1 mph (4:31 am)
Wind Gust40.3 mph (1:43 am)
Weather ElementAverage
Visibility6.9 mi
Wind DirectionWNW (282.3 °)

Weather ElementTotal
Precipitation0.05 in
Heating Degree Days48.3 (Base 65)
Averaged from 108 records on January 31, 2013
WEATHER CONDITIONS BREAKOUT
WIND DIRECTION BREAKOUT
WEATHER BY HOUR - JANUARY 31, 2013
[ °C ]   °F
Local TimeTemperatureDewpointHumidityBarometerVisibilityWind DirectionWind SpeedGust SpeedPrecipitationEventsConditions
12:33 AM24.8 °F23.0 °F93 %29.60 in8.0 miWest (280°)25.3 mph39.1 mphOvercast
12:35 AM24.8 °F21.2 °F86 %29.60 in8.0 miWest (280°)26.5 mph39.1 mphOvercast
12:41 AM24.8 °F21.2 °F86 %29.60 in9.0 miWest (280°)26.5 mph39.1 mphOvercast
12:43 AM24.8 °F21.2 °F86 %29.60 in9.0 miWest (280°)29.9 mph39.1 mphOvercast
12:55 AM24.8 °F20.5 °F84 %29.61 in10.0 miWest (280°)26.5 mph39.1 mph0.01 inOvercast
1:19 AM24.8 °F19.4 °F80 %29.62 in9.0 miWest (280°)27.6 mph36.8 mphSnowLight Snow
1:43 AM23.0 °F19.4 °F86 %29.64 in5.0 miWest (270°)27.6 mph40.3 mphSnowLight Snow
1:55 AM23.0 °F19.8 °F87 %29.65 in6.0 miWest (280°)27.6 mph39.1 mph0.00 inSnowLight Snow
1:56 AM23.0 °F19.4 °F86 %29.65 in7.0 miWest (280°)26.5 mph39.1 mphSnowLight Snow
1:57 AM23.0 °F19.4 °F86 %29.65 in7.0 miWest (280°)25.3 mph39.1 mphSnowLight Snow
2:00 AM23.0 °F19.4 °F86 %29.65 in8.0 miWest (280°)29.9 mph34.5 mphSnowLight Snow
2:25 AM23.0 °F17.6 °F80 %29.67 in10.0 miWest (280°)26.5 mph38.0 mphOvercast
2:32 AM21.2 °F17.6 °F86 %29.67 in10.0 miWest (270°)25.3 mph40.3 mphOvercast
2:49 AM21.2 °F17.6 °F86 %29.68 in10.0 miWest (280°)23.0 mph38.0 mphSnowLight Snow
2:55 AM22.1 °F17.8 °F83 %29.69 in10.0 miWest (280°)18.4 mph34.5 mph0.02 inSnowLight Snow
3:02 AM23.0 °F17.6 °F80 %29.69 in9.0 miWest (270°)25.3 mph31.1 mphSnowLight Snow
3:08 AM23.0 °F17.6 °F80 %29.69 in10.0 miWest (270°)25.3 mph31.1 mphSnowLight Snow
3:14 AM23.0 °F17.6 °F80 %29.69 in10.0 miWest (270°)21.9 mph38.0 mphOvercast
3:15 AM23.0 °F17.6 °F80 %29.69 in10.0 miWest (270°)23.0 mph38.0 mphRainLight Freezing Rain
3:27 AM23.0 °F19.4 °F86 %29.70 in6.0 miWest (270°)28.8 mph34.5 mphSnowLight Snow
3:30 AM23.0 °F17.6 °F80 %29.70 in5.0 miWest (270°)27.6 mph34.5 mphSnowLight Snow
3:35 AM23.0 °F17.6 °F80 %29.70 in4.0 miWest (280°)26.5 mph34.5 mphSnowLight Snow
3:45 AM21.2 °F19.4 °F93 %29.70 in4.0 miWest (270°)26.5 mph38.0 mphSnowLight Snow
3:46 AM21.2 °F19.4 °F93 %29.70 in5.0 miWest (270°)25.3 mph38.0 mphSnowLight Snow
3:55 AM21.9 °F17.4 °F83 %29.70 in10.0 miWest (280°)24.2 mph34.5 mph0.00 inSnowLight Snow
4:08 AM21.2 °F17.6 °F86 %29.70 in5.0 miWest (270°)25.3 mph33.4 mphSnowLight Snow
4:09 AM21.2 °F17.6 °F86 %29.71 in4.0 miWest (280°)24.2 mph32.2 mphSnowLight Snow
4:11 AM21.2 °F19.4 °F93 %29.70 in2.5 miWest (280°)26.5 mph32.2 mphSnowLight Snow
4:14 AM21.2 °F19.4 °F93 %29.71 in2.0 miWest (280°)25.3 mph32.2 mphSnowLight Snow
4:15 AM21.2 °F19.4 °F93 %29.71 in2.0 miWest (280°)24.2 mph32.2 mphSnowLight Snow
4:19 AM21.2 °F17.6 °F86 %29.71 in2.0 miWest (280°)29.9 mph35.7 mphSnowLight Snow
4:21 AM21.2 °F17.6 °F86 %29.71 in3.0 miWest (270°)28.8 mph36.8 mphSnowLight Snow
4:25 AM21.2 °F15.8 °F80 %29.71 in5.0 miWest (280°)29.9 mph40.3 mphSnowLight Snow
4:31 AM21.2 °F15.8 °F80 %29.71 in10.0 miWest (270°)31.1 mph40.3 mphRainLight Freezing Rain
4:53 AM19.4 °F15.8 °F86 %29.73 in4.0 miWest (280°)25.3 mph33.4 mphSnowLight Snow
4:55 AM20.1 °F16.0 °F84 %29.74 in2.5 miWest (280°)26.5 mph33.4 mph0.02 inSnowLight Snow
4:57 AM19.4 °F15.8 °F86 %29.74 in2.0 miWest (280°)28.8 mph36.8 mphSnowLight Snow
5:04 AM19.4 °F12.2 °F74 %29.74 in3.0 miWest (280°)28.8 mph38.0 mphSnowLight Snow
5:06 AM19.4 °F12.2 °F74 %29.74 in6.0 miWest (280°)29.9 mph38.0 mphSnowLight Snow
5:15 AM17.6 °F14.0 °F86 %29.75 in8.0 miWNW (290°)20.7 mph34.5 mphSnowLight Snow
5:18 AM17.6 °F14.0 °F86 %29.75 in5.0 miWNW (290°)24.2 mph34.5 mphSnowLight Snow
5:19 AM17.6 °F14.0 °F86 %29.75 in5.0 miWNW (290°)25.3 mph34.5 mphSnowLight Snow
5:22 AM17.6 °F14.0 °F86 %29.75 in4.0 miWest (280°)20.7 mph32.2 mphSnowLight Snow
5:36 AM17.6 °F14.0 °F86 %29.75 in5.0 miWest (280°)19.6 mph26.5 mphSnowLight Snow
5:55 AM18.9 °F14.4 °F83 %29.75 in5.0 miWest (270°)25.3 mph28.8 mph0.00 inSnowLight Snow
5:56 AM19.4 °F14.0 °F80 %29.75 in4.0 miWest (270°)24.2 mph28.8 mphSnowLight Snow
5:57 AM19.4 °F14.0 °F80 %29.75 in4.0 miWest (270°)25.3 mph32.2 mphSnowLight Snow
6:05 AM19.4 °F14.0 °F80 %29.76 in4.0 miWest (280°)24.2 mph33.4 mphSnowLight Snow
6:07 AM19.4 °F14.0 °F80 %29.75 in5.0 miWest (270°)25.3 mph33.4 mphSnowLight Snow
6:55 AM18.0 °F13.1 °F81 %29.78 in5.0 miWest (270°)25.3 mph34.5 mph0.00 inSnowLight Snow
7:55 AM18.1 °F13.5 °F82 %29.81 in10.0 miWest (280°)18.4 mph0.00 inSnowLight Snow
8:38 AM19.4 °F15.8 °F86 %29.82 in3.0 miWest (270°)17.3 mphSnowLight Snow
8:55 AM20.1 °F16.9 °F87 %29.83 in5.0 miWest (270°)19.6 mph0.00 inSnowLight Snow
9:55 AM22.3 °F18.5 °F85 %29.84 in5.0 miWest (280°)17.3 mph0.00 inSnowLight Snow
10:10 AM23.0 °F17.6 °F80 %29.84 in7.0 miWest (280°)21.9 mph28.8 mphSnowLight Snow
10:33 AM23.0 °F17.6 °F80 %29.84 in10.0 miWest (280°)16.1 mph27.6 mphSnowLight Snow
10:55 AM23.4 °F18.0 °F80 %29.86 in1.5 miWest (280°)23.0 mph29.9 mph0.00 inSnowSnow
10:57 AM23.0 °F17.6 °F80 %29.86 in5.0 miWest (280°)21.9 mphSnowLight Snow
11:15 AM23.0 °F17.6 °F80 %29.87 in10.0 miWest (280°)20.7 mph33.4 mphOvercast
11:18 AM23.0 °F17.6 °F80 %29.87 in10.0 miWest (270°)24.2 mph31.1 mphSnowLight Snow
11:55 AM22.8 °F15.8 °F74 %29.88 in10.0 miWest (280°)26.5 mph35.7 mph0.00 inMostly Cloudy
12:55 PM22.8 °F13.8 °F68 %29.88 in10.0 miWest (260°)27.6 mph40.3 mphOvercast
1:55 PM22.8 °F14.0 °F69 %29.89 in10.0 miWest (270°)29.9 mph39.1 mph0.00 inOvercast
2:33 PM23.0 °F14.0 °F68 %29.89 in10.0 miWest (280°)23.0 mph34.5 mphOvercast
2:37 PM23.0 °F14.0 °F68 %29.89 in10.0 miWNW (290°)24.2 mph34.5 mphOvercast
2:46 PM23.0 °F14.0 °F68 %29.89 in10.0 miWest (280°)24.2 mph33.4 mphOvercast
2:55 PM21.9 °F12.7 °F68 %29.90 in10.0 miWNW (290°)25.3 mph34.5 mphOvercast
3:45 PM21.2 °F14.0 °F74 %29.90 in10.0 miWest (280°)21.9 mph29.9 mphSnowLight Snow
3:55 PM21.0 °F14.0 °F74 %29.91 in10.0 miWNW (290°)18.4 mph0.00 inSnowLight Snow
4:55 PM20.1 °F15.6 °F83 %29.91 in1.5 miWNW (300°)18.4 mph0.00 inSnowLight Snow
5:55 PM17.8 °F10.9 °F75 %29.95 in10.0 miWest (270°)23.0 mph27.6 mph0.00 inSnowLight Snow
5:59 PM17.6 °F10.4 °F73 %29.95 in10.0 miWest (280°)25.3 mph31.1 mphOvercast
6:05 PM17.6 °F10.4 °F73 %29.95 in10.0 miWest (280°)25.3 mph31.1 mphOvercast
6:26 PM17.6 °F10.4 °F73 %29.97 in10.0 miWNW (290°)23.0 mphSnowLight Snow
6:32 PM17.6 °F12.2 °F79 %29.97 in4.0 miWNW (290°)20.7 mph27.6 mphSnowLight Snow
6:39 PM15.8 °F12.2 °F86 %29.98 in2.0 miWest (280°)21.9 mph29.9 mphSnowLight Snow
6:43 PM15.8 °F10.4 °F79 %29.98 in2.5 miWest (280°)23.0 mph29.9 mphSnowLight Snow
6:44 PM15.8 °F10.4 °F79 %29.98 in3.0 miWest (280°)23.0 mph29.9 mphSnowLight Snow
6:55 PM16.0 °F10.8 °F80 %29.98 in5.0 miWest (280°)23.0 mph0.00 inSnowLight Snow
6:56 PM15.8 °F10.4 °F79 %29.99 in4.0 miWest (280°)20.7 mph27.6 mphSnowLight Snow
6:59 PM15.8 °F12.2 °F86 %29.99 in2.5 miWNW (290°)26.5 mph33.4 mphSnowLight Snow
7:05 PM15.8 °F10.4 °F79 %29.99 in3.0 miWest (280°)21.9 mph33.4 mphSnowLight Snow
7:08 PM15.8 °F10.4 °F79 %30.00 in5.0 miWest (280°)16.1 mph33.4 mphSnowLight Snow
7:55 PM15.8 °F6.8 °F68 %30.01 in10.0 miWest (280°)23.0 mph31.1 mphMostly Cloudy
7:57 PM14.0 °F6.8 °F73 %30.01 in10.0 miWest (280°)23.0 mph31.1 mphMostly Cloudy
8:23 PM14.0 °F6.8 °F73 %30.02 in10.0 miWNW (290°)20.7 mph31.1 mphSnowLight Snow
8:44 PM14.0 °F10.4 °F86 %30.02 in4.0 miWNW (290°)25.3 mph31.1 mphSnowLight Snow
8:55 PM14.0 °F8.6 °F79 %30.03 in4.0 miWNW (290°)20.7 mph31.1 mphSnowLight Snow
9:05 PM14.0 °F6.8 °F73 %30.03 in10.0 miWNW (290°)23.0 mph31.1 mphOvercast
9:23 PM12.2 °F5.0 °F73 %30.03 in10.0 miWNW (290°)25.3 mph34.5 mphMostly Cloudy
9:31 PM12.2 °F5.0 °F73 %30.04 in10.0 miWNW (290°)23.0 mph31.1 mphSnowLight Snow
9:43 PM12.2 °F6.8 °F79 %30.04 in10.0 miWNW (290°)24.2 mph29.9 mphMostly Cloudy
9:55 PM12.4 °F5.2 °F73 %30.05 in10.0 miWNW (300°)19.6 mph0.00 inOvercast
9:57 PM12.2 °F5.0 °F73 %30.05 in10.0 miWNW (290°)21.9 mphSnowLight Snow
10:15 PM12.2 °F6.8 °F79 %30.06 in6.0 miWNW (290°)21.9 mph35.7 mphSnowLight Snow
10:17 PM12.2 °F6.8 °F79 %30.06 in4.0 miWNW (300°)21.9 mph35.7 mphSnowLight Snow
10:20 PM12.2 °F8.6 °F85 %30.06 in3.0 miNW (310°)21.9 mph35.7 mphSnowLight Snow
10:21 PM12.2 °F8.6 °F85 %30.07 in3.0 miWNW (300°)21.9 mph34.5 mphSnowLight Snow
10:31 PM10.4 °F3.2 °F73 %30.07 in5.0 miNW (310°)21.9 mph32.2 mphSnowLight Snow
10:55 PM10.6 °F5.5 °F80 %30.08 in9.0 miWNW (300°)21.9 mph31.1 mph0.00 inSnowLight Snow
11:02 PM10.4 °F3.2 °F73 %30.09 in10.0 miWNW (300°)24.2 mph32.2 mphSnowLight Snow
11:03 PM10.4 °F3.2 °F73 %30.09 in10.0 miWNW (300°)24.2 mph32.2 mphScattered Clouds
11:08 PM10.4 °F3.2 °F73 %30.09 in10.0 miNW (310°)23.0 mph29.9 mphLight Drizzle
11:18 PM8.6 °F5.0 °F85 %30.10 in10.0 miNW (310°)19.6 mph29.9 mphPartly Cloudy
11:30 PM8.6 °F3.2 °F79 %30.10 in10.0 miWNW (290°)21.9 mph26.5 mphLight Drizzle
11:42 PM8.6 °F3.2 °F79 %30.11 in10.0 miWNW (300°)21.9 mph33.4 mphMostly Cloudy
11:53 PM8.6 °F1.4 °F73 %30.11 in9.0 miWNW (290°)20.7 mph33.4 mphMostly Cloudy
11:55 PM9.0 °F2.8 °F76 %30.12 in8.0 miWNW (300°)20.7 mph33.4 mph0.00 inSnowLight Snow
Hourly data recorded from KGUS, located miles away from Wabash, Indiana







STORIES FROM OUR PARTNERS